Tracking 18942 objects as of 18-Jan-2018
HD Live streaming from Space Station
objects crossing your sky now

ASTRA 1E

Track ASTRA 1E now!
ASTRA 1E is classified as:


NORAD ID: 23686
Int'l Code: 1995-055A
Perigee: 36,166.6 km
Apogee: 36,259.7 km
Inclination: 5.8 °
Period: 1,457.6 minutes
Semi major axis: 42584 km
RCS: 60.6976 m2 (large)
Launch date: October 19, 1995
Source: SOCIETE EUROPEENNE DES SATELLITES (SES)
Launch site: FRENCH GUIANA (FRGUI)

54 to 108 digital TV programs to W. Europe; 18 Ku-band transponders; backup for 1B, 1C or 1D
aabbcc
Your satellite tracking list
Your tracking list is empty




NASA's NSSDC Master Catalog

Two Line Element Set (TLE):
1 23686U 95055A   18017.42546051 -.00000229 +00000-0 +00000-0 0  9997
2 23686 005.8119 059.3171 0010928 273.9251 271.5304 00.98794152081417
Source of the keplerian elements: AFSPC